(50000) Quaoar
ephemeris date magn radius delta ra dec elong phase
Today5 Sep 202618.842.605 AU42.123 AU18h42m-14°59'117.9°1.2°
Opposition4 Jul 202718.742.579 AU41.572 AU18h51m-14°42'171.8°0.2°
(50000) Quaoar - 2026-09-05
astro.vanbuitenen.nl


 
-1 year
-1 month
-1 day
Now
+1 day
+1 month
+1 year

The interactive orbit chart above shows the body's path through the solar system and its position at the given date. Green and blue lines are shown perpendicular to the ecliptic plane: Green if the path is above the ecliptic plane, blue if it is below. (Left-click and drag to rotate the view; Right-click and drag to move the view; Use scroll wheel to zoom in our out.)

The orbital elements of Quaoar are:

            e (Eccentricity)                : 0.0351994
            a (Semimajor axis)              : 43.1560188
            i (Inclination)                 : 7.99158
            Ω (Longitude of ascending node) : 188.91917
            ω (Argument of perihelion)      : 163.21294
            M (Mean anomaly)                : 292.84483
            Epoch                           : 2026 Jun 09

            L (Longitude of perihelion)     : 172.28609
            B (Latitude of perihelion)      : 2.30123
            P (Orbital period in years)     : 283.51            
        

The light curve chart below shows the estimated development of the minor planet's magnitude.


The all-sky chart below shows the path of the minor planet over the same period as the light curve. The current position is marked yellow.





The following chart shows the path of the minor planet in the next few days. The field of view is optimized for (~10x50) binoculars and finderscopes.




Ephemerides:
Date       Time       RA (2000)    DEC (2000)    delta   radius  elong  phase   PA    magn
2026-09-05 00:00 UT   18 42 21.6   -14 59 07    42.123   42.605  117.9    1.2    90   18.8 
2026-09-05 20:33 UT   18 42 20.2   -14 59 17    42.136   42.605  117.1    1.2    90   18.8 
2026-09-06 00:00 UT   18 42 20.0   -14 59 19    42.138   42.605  117.0    1.2    90   18.8 
2026-09-07 00:00 UT   18 42 18.4   -14 59 31    42.153   42.605  116.0    1.2    90   18.8 
2026-09-08 00:00 UT   18 42 16.9   -14 59 43    42.168   42.605  115.0    1.2    90   18.8 
2026-09-09 00:00 UT   18 42 15.5   -14 59 56    42.184   42.605  114.1    1.2    89   18.8 
2026-09-10 00:00 UT   18 42 14.2   -15 00 08    42.199   42.604  113.1    1.2    89   18.8 
2026-09-11 00:00 UT   18 42 13.0   -15 00 20    42.215   42.604  112.1    1.3    89   18.8 
2026-09-12 00:00 UT   18 42 11.9   -15 00 32    42.230   42.604  111.2    1.3    89   18.8 
2026-09-13 00:00 UT   18 42 10.9   -15 00 44    42.246   42.604  110.2    1.3    89   18.8 
2026-09-14 00:00 UT   18 42 09.9   -15 00 57    42.262   42.604  109.2    1.3    89   18.8 
2026-09-15 00:00 UT   18 42 09.1   -15 01 09    42.278   42.604  108.3    1.3    88   18.8 
2026-09-16 00:00 UT   18 42 08.4   -15 01 21    42.294   42.604  107.3    1.3    88   18.8 
2026-09-17 00:00 UT   18 42 07.7   -15 01 33    42.310   42.604  106.3    1.3    88   18.9 
2026-09-18 00:00 UT   18 42 07.2   -15 01 45    42.326   42.604  105.4    1.3    88   18.9 
2026-09-19 00:00 UT   18 42 06.7   -15 01 56    42.343   42.604  104.4    1.3    88   18.9 
2026-09-20 00:00 UT   18 42 06.4   -15 02 08    42.359   42.604  103.4    1.3    88   18.9 
2026-09-21 00:00 UT   18 42 06.1   -15 02 20    42.375   42.604  102.5    1.3    88   18.9 
2026-09-22 00:00 UT   18 42 05.9   -15 02 32    42.392   42.603  101.5    1.3    87   18.9 
2026-09-23 00:00 UT   18 42 05.9   -15 02 43    42.409   42.603  100.5    1.3    87   18.9 
2026-09-24 00:00 UT   18 42 05.9   -15 02 55    42.425   42.603   99.6    1.3    87   18.9 
2026-09-25 00:00 UT   18 42 06.0   -15 03 06    42.442   42.603   98.6    1.3    87   18.9 
2026-09-26 00:00 UT   18 42 06.2   -15 03 17    42.458   42.603   97.6    1.3    87   18.9 
2026-09-27 00:00 UT   18 42 06.6   -15 03 29    42.475   42.603   96.7    1.3    87   18.9 
2026-09-28 00:00 UT   18 42 07.0   -15 03 40    42.492   42.603   95.7    1.3    87   18.9 
2026-09-29 00:00 UT   18 42 07.5   -15 03 51    42.509   42.603   94.7    1.3    86   18.9 
2026-09-30 00:00 UT   18 42 08.1   -15 04 02    42.526   42.603   93.7    1.3    86   18.9 
2026-10-01 00:00 UT   18 42 08.8   -15 04 13    42.542   42.603   92.8    1.3    86   18.9 
2026-10-02 00:00 UT   18 42 09.6   -15 04 24    42.559   42.603   91.8    1.3    86   18.9 
2026-10-03 00:00 UT   18 42 10.5   -15 04 34    42.576   42.602   90.8    1.3    86   18.9 
2026-10-04 00:00 UT   18 42 11.5   -15 04 45    42.593   42.602   89.9    1.3    86   18.9 
2026-10-05 00:00 UT   18 42 12.6   -15 04 55    42.610   42.602   88.9    1.3    86   18.9 


    Terminology:
            
    delta:  distance between minor planet and earth in AU
    radius: distance between minor planet and sun in AU
    magn:   magnitude (brightness) estimate    
    ra:     right ascension in hours (24h = 360deg)
    dec:    declination in degrees
    elong:  elongation in degrees (angle sun-earth-minor planet)    
    phase:  phase angle in degrees (angle sun-minor planet-earth)        
    AU:     Astronomical Unit (mean distance between earth and sun: 149597870.7 km
    

Orbital elements provided by the MPC (Minor Planet Center).
Calculations by a modified version of AAPlus, a C# implementation of the AA+ project by PJ Naughter from the algorithms presented in the book "Astronomical Algorithms" by Jean Meeus.
NGC2000 dso catalog and star labels from VizieR as provided by the Strasbourg astronomical Data Center.
Tycho2 catalog from the ESO archive.